Flag for Peru Weather past 2 weeks in Iquitos, Loreto, Peru

Now
75 °F

Clear.


Feels Like: 74 °F
Forecast: 73 / 87 °F
Wind: 5 mph from Southwest

Location: Iquitos Airport

Current Time: May 26, 2015 at 9:51:33 PM

Latest Report: May 26, 2015 at 9:00 PM


Visibility: 10 mi

Pressure: 29.89 "Hg

Humidity: 94%

Dew point: 73 °F

Location of IquitosLocation

Historic Weather in Iquitos — Graph

°F

Iquitos temperature yesterday

Maximum temperature yesterday: 91 °F (at 2:00 PM)
Minimum temperature yesterday: 75 °F (at 12:00 AM)
Average temperature yesterday: 82 °F

Past Weeks' High & Low Weather Summary

 TemperatureHumidityPressure
High91 °F (May 19, 2:00 PM)100% (May 12, 6:00 AM)30.04 "Hg (May 12, 6:00 AM)
Low72 °F (May 15, 4:00 AM)56% (May 19, 2:00 PM)29.77 "Hg (May 25, 3:00 PM)
Average79 °F86%29.90 "Hg
* Reported May 11 9:00 PM — May 26 9:00 PM, Iquitos, Weather by CustomWeather, © 2015

Note: Actual official high and low records may vary slightly from our data, if they occured in-between our weather recording intervals... More about our weather records

Advertising

Iquitos weather history for previous 24 hours

 ConditionsComfort  
Time TempWeatherWind HumidityBarometerVisibility
9:00 PM
Tue, May 26
75 °FClear.5 mph94%29.89 "Hg10 mi
8:00 PM77 °FClear.2 mph94%29.86 "Hg10 mi
7:00 PM79 °FPassing clouds.2 mph89%29.83 "HgN/A
6:00 PM81 °FPassing clouds.2 mph84%29.83 "HgN/A
5:00 PM84 °FScattered clouds.5 mph74%29.80 "HgN/A
4:00 PM86 °FScattered clouds.5 mph70%29.80 "HgN/A
3:00 PM86 °FBroken clouds.6 mph70%29.83 "HgN/A
2:00 PM84 °FScattered showers. Partly sunny.9 mph79%29.86 "Hg5 mi
1:00 PM82 °FScattered showers. Partly sunny.13 mph79%29.89 "Hg5 mi
12:00 PM84 °FScattered showers. Partly sunny.8 mph74%29.92 "HgN/A
11:00 AM82 °FPartly sunny.5 mph79%29.95 "HgN/A
10:00 AM81 °FPartly sunny.6 mph84%29.98 "HgN/A
9:00 AM79 °FPartly sunny.6 mph84%29.98 "HgN/A
8:00 AM77 °FPartly sunny.6 mph89%29.98 "HgN/A
7:00 AM75 °FBroken clouds.3 mph94%29.92 "HgN/A
6:00 AM75 °FBroken clouds.No wind94%29.92 "Hg5 mi
5:00 AM75 °FPassing clouds.5 mph94%29.89 "Hg5 mi
4:00 AM75 °FLight rain. Passing clouds.7 mph94%29.89 "Hg2 mi
3:02 AM75 °FRain. Passing clouds.8 mph94%29.89 "Hg2 mi
2:00 AM77 °FRain. Passing clouds.5 mph94%29.89 "Hg1 mi
1:00 AM77 °FPartly cloudy.No wind94%29.89 "HgN/A
12:00 AM77 °FPassing clouds.3 mph94%29.89 "HgN/A
11:00 PM
Mon, May 25
77 °FClear.2 mph94%29.89 "Hg10 mi
10:00 PM79 °FClear.3 mph89%29.89 "Hg10 mi
9:00 PM79 °FClear.No wind89%29.89 "Hg10 mi
Weather by CustomWeather, © 2015

See weather overviewHow to use our weather pages